Temperature
18 18 18 17 17 16 17 18 18 18 17 17 17 16 15 15 15 15 15 15 14 14 14 13 13 12 12 11 11 11 11 11 11 10 10 11 11 11 11 11 11 11 11 11
19 18 18 18 18 17 17 17 17 17 17 18 16 16 15 15 15 15 15 15 14 14 14 14 13 13 12 12 11 11 11 10 10 10 10 10 10 10 11 11 11 11 11 11
21 18 18 20 20 18 18 18 18 18 18 18 17 16 16 16 15 15 15 15 15 14 14 14 14 13 13 12 12 11 11 10 10 10 10 10 10 10 10 11 11 11 11 11
20 20 21 22 20 19 18 18 18 18 18 17 17 16 15 15 15 15 15 15 15 14 14 14 14 13 13 12 12 12 11 10 10 10 10 10 10 10 10 10 10 11 11 11
21 21 21 21 19 18 18 19 19 18 18 17 17 16 17 16 15 15 15 14 14 14 14 14 14 13 13 13 12 12 11 10 10 10 10 10 10 10 10 10 9 9 10 10
20 20 22 22 20 18 19 20 20 19 18 18 17 18 19 16 15 15 14 14 14 14 14 14 13 13 13 13 12 12 11 10 10 10 10 10 9 9 9 9 9 9 9 9
20 21 22 21 18 18 19 22 20 19 18 18 17 19 17 16 15 15 14 14 14 14 14 14 13 13 14 13 12 12 11 11 10 10 10 10 9 9 9 9 9 9 9 9
20 21 22 18 17 19 22 20 19 19 18 18 18 17 16 15 15 15 14 14 14 14 14 14 14 13 13 13 12 12 11 11 10 10 10 9 9 9 9 9 8 8 9 8
21 23 21 18 19 19 19 20 19 18 18 17 17 17 16 15 15 15 15 14 14 14 14 14 13 13 13 12 12 12 11 11 10 10 10 10 9 9 9 8 8 8 9 9
20 22 20 18 18 18 18 19 19 18 18 17 17 17 16 16 15 15 15 15 15 14 14 14 14 13 13 13 12 12 11 11 11 10 10 10 10 9 9 8 8 8 8 8
21 22 21 18 18 18 17 17 17 17 17 17 17 17 16 16 15 15 15 15 15 14 14 14 14 13 13 13 12 12 12 11 11 10 10 10 9 9 9 9 8 8 8 8
23 24 23 23 20 19 18 17 17 17 17 17 17 16 16 16 16 15 15 15 15 14 14 14 14 14 13 13 13 12 12 11 11 11 10 10 9 9 9 9 9 8 8 8
23 21 21 21 20 20 19 18 18 17 17 17 16 16 16 16 15 15 15 15 15 14 14 14 14 14 14 13 13 12 12 12 11 11 10 10 10 10 9 9 9 9 9 9
20 20 20 20 20 20 19 18 18 17 17 17 17 16 16 16 15 15 15 15 15 15 14 14 14 14 14 14 13 13 12 12 11 11 11 10 10 10 10 9 9 8 9 9
21 20 20 20 20 20 19 18 17 17 17 17 16 16 16 16 15 15 15 15 15 15 14 14 14 14 14 14 13 13 12 12 12 11 11 11 10 10 10 10 9 9 9 9
20 20 19 19 19 19 19 18 17 17 17 17 16 16 16 16 15 15 15 15 15 14 14 14 14 14 14 14 13 13 13 13 12 12 11 11 11 11 10 10 10 10 9 9
19 19 19 19 20 19 19 19 18 18 17 17 16 16 16 16 15 15 15 15 15 14 14 14 14 14 14 14 13 13 13 13 13 12 12 12 11 11 11 11 10 10 10 9
19 20 20 20 20 20 20 20 19 18 17 17 16 16 16 15 15 15 15 15 15 15 14 14 14 14 14 14 13 13 13 13 12 12 12 12 12 11 11 11 11 10 10 10
16 17 18 19 20 20 20 20 20 19 18 17 17 16 16 16 15 15 15 15 15 15 15 14 14 14 14 14 13 13 13 13 13 13 12 12 12 12 12 11 11 11 11 10
15 16 17 18 19 19 20 20 20 20 19 18 17 16 16 16 15 15 15 15 15 15 15 14 14 14 14 13 14 13 13 13 13 13 13 13 12 12 12 12 12 11 11 11
12 14 15 16 17 19 19 19 20 20 19 19 18 17 16 16 16 15 15 15 15 15 15 15 14 14 14 14 14 13 13 13 13 13 13 13 13 12 12 12 12 12 12 11
10 12 13 14 15 16 18 18 19 19 19 19 18 17 16 16 16 16 16 16 15 15 15 15 15 14 14 14 14 13 13 13 13 13 13 13 13 13 13 12 12 12 12 12
8 9 11 12 13 14 16 17 18 18 19 19 18 17 17 16 16 16 16 16 16 15 15 15 15 14 14 14 14 14 13 13 13 13 13 13 13 13 13 13 13 13 13 13
7 7 8 10 11 12 13 15 16 17 18 18 18 17 17 17 16 16 16 16 16 15 15 15 15 14 14 14 14 13 13 13 13 13 13 13 13 13 13 13 13 13 13 13
6 7 7 8 8 9 10 12 14 15 16 17 17 17 17 16 16 16 16 16 16 15 15 15 15 14 14 14 14 13 13 13 13 13 13 13 13 13 13 13 13 13 13 13
6 6 6 6 7 8 8 9 10 12 13 15 15 16 16 16 16 16 16 16 16 15 15 15 15 15 14 14 14 13 13 13 13 13 13 13 13 13 13 13 13 13 13 13
5 6 6 6 6 6 7 8 8 9 10 11 12 14 14 15 15 15 15 15 15 15 15 15 15 14 14 14 14 13 13 13 13 13 13 13 13 13 13 13 13 13 13 13
Wind_Speed
4 3 2 2 4 5 5 3 3 1 3 2 2 3 2 3 3 4 6 8 10 11 10 8 7 7 8 8 8 8 9 10 10 9 9 9 10 10 11 11 11 11 11 11
4 4 4 7 8 8 7 6 6 5 5 4 4 4 4 4 4 4 5 8 9 11 11 10 8 7 6 7 7 8 8 9 8 8 8 8 9 10 11 11 11 11 11 11
2 3 5 8 9 12 8 9 8 7 4 6 6 5 5 4 5 5 6 7 9 10 10 9 8 6 6 6 6 7 8 8 8 8 8 8 8 9 10 10 11 11 11 10
3 4 4 3 3 8 10 10 12 8 6 7 6 4 5 6 6 6 5 7 8 9 10 9 8 6 3 3 4 5 7 8 8 7 7 7 7 8 9 9 9 9 9 10
3 4 5 3 6 7 8 8 14 15 11 9 6 5 7 8 7 6 5 6 7 8 8 8 8 7 4 3 4 5 6 7 7 7 6 7 7 7 8 8 8 8 8 9
4 5 3 2 7 7 5 6 10 16 15 13 11 7 5 6 6 5 4 5 6 6 7 7 7 6 5 4 4 5 5 5 6 6 6 6 7 7 6 6 7 7 7 8
8 5 5 4 9 10 6 1 8 15 16 15 14 6 6 7 5 4 3 3 4 5 5 5 6 6 4 4 5 4 3 4 4 5 6 6 6 6 6 6 6 7 7 7
5 6 3 11 12 10 4 3 7 13 15 15 13 8 7 6 5 4 3 2 3 4 4 4 5 5 4 5 3 3 3 3 4 4 5 5 5 5 6 6 6 7 7 8
7 5 2 14 10 7 4 6 8 12 14 15 14 12 10 8 6 5 4 2 2 3 3 3 4 4 4 4 2 3 3 3 3 4 4 5 5 5 5 6 6 6 7 7
7 10 9 13 14 10 8 8 7 12 14 15 14 13 11 9 7 6 5 3 2 2 2 2 3 3 3 2 1 3 3 3 2 2 3 4 4 4 5 5 6 6 7 8
9 9 7 11 17 17 13 10 8 12 14 15 14 13 12 10 9 7 5 4 3 3 2 2 2 2 2 1 1 3 3 3 2 2 2 2 3 3 4 5 5 6 7 7
7 5 5 3 6 16 18 16 13 14 15 15 14 14 13 11 9 8 7 6 5 4 3 2 1 2 1 0 2 3 3 3 2 2 1 1 2 2 2 1 2 3 6 7
6 2 4 2 3 11 18 18 16 16 17 16 15 13 13 11 10 9 8 8 6 5 4 3 3 2 1 1 3 3 3 3 3 2 1 0 1 2 2 3 4 3 4 6
11 6 6 7 6 9 15 17 16 16 16 16 15 14 13 12 11 11 10 9 7 6 5 4 4 3 1 2 3 4 4 3 3 3 2 1 0 1 2 3 2 2 3 4
14 15 12 4 5 8 12 15 16 17 17 16 15 15 14 14 13 12 10 9 8 7 7 6 5 4 2 3 4 4 5 4 4 3 3 2 2 1 0 1 2 2 2 3
9 13 14 13 11 11 14 17 18 19 18 18 17 16 16 15 13 11 10 10 9 9 8 7 7 5 4 4 4 4 4 3 4 5 4 4 3 3 2 1 1 1 2 3
10 11 13 16 17 16 17 18 19 19 19 19 19 17 16 15 13 12 12 11 11 9 8 8 7 6 5 5 5 4 5 6 8 6 5 4 4 4 3 2 2 1 1 2
16 16 14 15 16 18 18 18 18 19 19 19 19 18 17 17 16 15 14 12 11 10 10 9 8 7 7 6 5 5 5 5 6 6 5 5 5 5 4 4 3 3 2 3
16 18 18 17 16 15 17 17 18 18 18 18 19 19 19 18 17 15 14 13 12 12 11 11 10 10 9 8 6 5 6 5 6 6 6 6 6 6 5 5 5 4 4 3
16 16 18 18 17 16 15 15 15 16 17 18 19 19 19 18 17 16 14 14 12 11 9 8 10 11 10 9 8 7 6 6 6 6 6 6 7 7 6 6 6 6 5 5
17 16 15 16 17 16 15 14 14 15 16 18 19 20 19 18 17 15 14 13 13 12 10 10 9 9 9 8 9 8 7 7 6 6 6 7 7 7 7 7 7 7 6 6
18 16 15 14 14 15 14 13 14 14 16 17 18 18 18 17 17 15 15 12 10 11 10 9 10 10 10 9 9 8 8 8 7 6 6 7 7 7 7 7 7 7 7 7
19 18 16 13 11 12 11 11 13 13 15 16 17 18 17 15 13 13 12 11 10 12 10 9 11 13 14 11 9 9 9 9 8 7 7 7 7 7 7 8 7 7 7 7
20 19 18 15 10 7 6 7 8 9 10 11 13 14 14 12 11 11 9 9 12 13 11 11 14 15 15 11 10 10 9 9 8 8 7 7 7 7 7 7 7 7 7 8
18 18 19 18 14 11 9 6 3 3 6 6 8 9 9 9 8 8 8 9 11 11 9 11 15 16 13 11 11 11 10 9 9 8 8 8 8 8 7 7 7 7 7 7
13 13 13 15 13 12 11 9 6 4 1 2 3 3 5 5 6 6 6 8 11 11 9 8 10 12 12 12 12 11 11 10 9 9 10 9 9 9 8 8 9 8 8 8
10 10 10 11 12 13 13 11 10 9 7 5 3 2 2 3 4 5 6 6 7 8 8 8 8 9 11 11 11 11 10 10 10 10 10 10 9 9 9 10 9 8 8 8
Wind_Direction
101 118 176 222 216 215 237 256 265 224 228 222 205 212 229 267 303 327 350 359 0 357 357 -0 6 8 17 19 17 18 22 25 25 30 37 39 41 40 40 41 40 36 36 37
181 200 245 258 238 226 234 236 235 239 239 210 199 212 230 239 264 298 329 344 349 349 352 356 357 358 8 17 20 20 25 28 27 29 37 37 37 36 35 35 35 33 31 32
223 210 265 258 227 211 215 214 214 220 200 174 198 214 229 233 248 276 312 329 338 345 349 350 350 348 2 10 15 23 27 30 30 31 34 32 33 33 30 30 29 28 25 25
268 250 260 99 117 198 217 225 217 220 192 191 202 209 224 233 244 264 295 320 335 340 344 348 349 347 351 0 15 28 32 33 31 31 33 30 29 29 26 26 27 25 22 18
265 277 278 209 191 193 212 242 215 213 206 198 200 219 224 219 230 252 287 311 323 331 337 347 357 355 348 18 28 36 38 35 32 33 33 30 27 25 22 20 22 25 25 19
251 274 269 140 154 174 204 251 203 200 200 192 189 208 179 175 202 229 267 302 320 327 338 356 1 357 359 25 39 47 47 42 39 37 37 34 29 22 22 22 22 24 28 22
242 260 266 143 149 165 207 9 165 188 192 189 196 198 136 161 189 216 256 293 310 323 343 357 355 355 11 34 48 65 70 58 51 47 46 36 29 27 24 27 26 26 29 29
215 234 257 148 162 198 231 114 171 184 187 189 194 186 169 184 199 215 237 268 306 324 347 357 358 356 21 39 55 103 107 86 69 55 47 45 41 34 32 28 30 27 23 26
224 249 55 180 198 212 221 197 186 185 185 187 191 192 195 200 206 214 228 242 285 318 333 357 12 7 18 40 84 141 136 116 96 80 61 45 40 38 35 31 27 25 20 18
256 260 241 217 223 220 215 212 195 189 185 188 192 193 196 200 204 209 216 222 247 282 311 5 17 14 12 28 150 166 150 135 125 92 74 60 40 33 31 24 21 20 17 13
249 263 249 231 224 218 211 210 199 192 190 192 194 195 196 199 202 206 208 210 223 250 286 318 343 3 15 17 187 174 164 158 141 109 73 47 52 35 22 39 23 1 6 7
242 236 217 215 203 207 205 205 200 193 193 197 199 198 197 199 198 201 206 209 217 229 240 258 294 331 2 297 218 199 180 172 167 151 120 42 40 85 137 333 38 23 16 3
255 244 231 226 218 202 203 203 200 198 197 196 200 201 200 199 197 200 205 211 218 224 235 248 258 275 292 258 226 215 196 180 180 185 171 128 32 23 56 144 169 125 64 35
234 230 232 227 222 202 201 200 199 201 202 201 199 200 202 202 200 203 208 210 213 219 228 239 249 253 252 247 228 216 204 184 196 194 203 213 31 27 23 25 53 83 117 88
225 222 233 235 210 195 195 195 197 202 203 203 201 200 202 203 205 208 209 205 208 219 227 233 241 240 226 237 232 218 209 201 202 204 206 218 221 237 348 21 28 31 34 103
228 222 230 233 227 208 197 198 203 205 204 203 202 203 205 207 208 207 203 200 209 221 225 228 235 232 219 230 228 221 215 208 225 218 214 217 222 231 239 271 333 2 17 27
232 226 221 224 225 217 209 207 209 209 207 206 205 204 204 205 207 207 206 206 215 225 226 228 231 222 219 228 231 227 220 200 202 228 228 228 232 236 237 246 272 303 349 62
251 253 246 237 229 221 215 213 214 213 211 208 204 204 204 205 208 210 211 209 213 223 228 228 227 219 220 223 229 236 231 224 218 224 226 228 232 233 235 238 245 254 248 184
275 264 259 252 245 235 223 215 213 213 210 205 203 205 206 209 211 213 211 207 212 222 226 219 210 218 221 218 219 228 236 235 232 232 231 220 229 234 231 233 238 241 239 228
297 280 264 254 243 235 228 219 211 208 205 203 203 205 208 210 211 211 209 212 217 222 220 201 199 212 218 213 207 228 232 237 242 241 236 234 231 232 231 231 234 238 236 233
322 306 282 260 246 234 228 218 207 203 200 199 203 206 208 208 208 208 208 217 222 215 206 189 202 206 209 204 202 226 231 235 241 246 243 239 238 237 236 234 232 234 236 234
337 327 310 283 258 241 229 221 212 204 197 198 204 206 207 208 207 208 212 218 219 185 190 199 206 202 195 192 213 222 228 234 239 244 244 243 242 241 239 239 238 236 235 234
351 345 336 318 287 260 241 225 216 208 202 199 200 203 205 206 203 204 212 214 210 187 193 202 198 184 180 200 216 220 226 231 237 241 242 243 243 244 246 246 245 244 240 235
357 356 354 349 339 313 272 249 230 217 209 205 204 204 204 203 205 211 217 183 186 184 201 201 190 185 189 208 214 219 225 229 234 240 244 245 246 247 248 250 252 251 247 242
355 356 358 360 3 359 349 338 297 226 208 202 201 201 205 207 207 201 201 199 184 186 202 199 194 193 198 210 214 219 224 227 232 237 239 243 246 248 250 252 254 257 255 249
350 352 352 354 357 356 358 2 7 12 36 158 167 180 193 197 202 195 193 195 196 197 202 196 191 193 205 212 215 219 224 224 223 231 240 243 248 249 251 253 259 259 260 257
337 346 349 350 353 355 354 357 3 9 11 16 40 62 114 159 175 185 189 190 191 197 202 201 197 198 204 209 215 218 221 224 227 230 235 240 244 248 251 254 256 258 258 257
Height
1574 1576 1576 1577 1578 1580 1578 1574 1572 1572 1575 1574 1576 1578 1579 1579 1578 1577 1575 1573 1570 1568 1564 1561 1558 1555 1552 1548 1545 1541 1538 1535 1531 1529 1527 1525 1523 1520 1519 1517 1515 1513 1512 1510
1574 1575 1575 1574 1573 1575 1576 1575 1574 1574 1573 1572 1575 1576 1577 1576 1576 1575 1574 1572 1570 1567 1564 1561 1558 1555 1553 1550 1547 1544 1541 1537 1534 1532 1529 1527 1525 1523 1521 1519 1517 1515 1513 1511
1566 1572 1573 1566 1560 1566 1568 1568 1569 1569 1567 1570 1572 1574 1574 1575 1575 1574 1573 1572 1570 1567 1564 1561 1558 1556 1554 1551 1548 1546 1543 1539 1536 1534 1531 1529 1527 1525 1523 1521 1519 1517 1515 1513
1565 1569 1566 1555 1557 1559 1563 1563 1564 1564 1566 1569 1570 1572 1573 1573 1573 1573 1572 1571 1569 1567 1564 1561 1558 1556 1553 1551 1549 1547 1545 1541 1538 1536 1534 1532 1530 1527 1525 1523 1521 1518 1516 1514
1564 1564 1557 1554 1556 1558 1560 1557 1556 1560 1563 1567 1569 1570 1569 1570 1570 1571 1571 1570 1568 1566 1563 1561 1558 1555 1554 1552 1551 1549 1546 1543 1541 1538 1536 1534 1531 1529 1527 1524 1522 1520 1517 1515
1565 1564 1555 1549 1551 1555 1558 1553 1548 1554 1558 1562 1566 1565 1564 1567 1568 1569 1569 1568 1566 1564 1563 1560 1558 1555 1554 1553 1551 1549 1547 1545 1542 1540 1538 1535 1533 1531 1528 1526 1524 1522 1519 1516
1563 1560 1547 1545 1552 1556 1557 1545 1545 1549 1553 1558 1561 1561 1564 1565 1566 1567 1567 1566 1565 1563 1562 1559 1557 1555 1555 1553 1551 1550 1548 1546 1544 1542 1539 1537 1534 1532 1530 1528 1525 1523 1521 1519
1557 1556 1548 1546 1550 1549 1543 1543 1544 1547 1551 1555 1558 1561 1563 1564 1565 1565 1565 1564 1563 1562 1561 1559 1556 1555 1555 1553 1551 1549 1548 1546 1545 1543 1541 1538 1536 1534 1531 1529 1527 1525 1523 1521
1547 1542 1539 1541 1541 1541 1541 1542 1543 1545 1548 1552 1556 1559 1561 1562 1563 1564 1564 1563 1562 1561 1560 1559 1557 1555 1554 1552 1551 1549 1548 1547 1546 1544 1542 1540 1538 1535 1533 1531 1530 1528 1525 1523
1542 1535 1536 1537 1537 1538 1539 1541 1542 1544 1546 1550 1553 1556 1558 1560 1561 1562 1562 1562 1561 1560 1560 1558 1556 1554 1553 1552 1551 1550 1549 1548 1547 1545 1544 1541 1539 1537 1535 1533 1531 1529 1527 1525
1537 1530 1531 1530 1530 1532 1535 1538 1540 1542 1544 1547 1550 1552 1555 1557 1558 1559 1560 1560 1559 1559 1558 1557 1556 1554 1552 1551 1550 1550 1549 1548 1547 1546 1544 1543 1541 1538 1536 1534 1532 1530 1528 1526
1527 1524 1525 1525 1524 1526 1530 1533 1536 1538 1541 1544 1547 1549 1551 1554 1555 1556 1557 1557 1557 1557 1556 1556 1554 1553 1552 1550 1550 1550 1549 1548 1548 1546 1545 1544 1542 1540 1537 1535 1533 1531 1529 1527
1523 1522 1522 1522 1522 1522 1523 1528 1532 1535 1538 1540 1543 1546 1548 1550 1551 1553 1554 1554 1555 1555 1554 1553 1552 1551 1550 1549 1549 1549 1549 1548 1547 1546 1545 1544 1543 1541 1539 1537 1534 1532 1530 1528
1519 1520 1519 1519 1519 1519 1520 1524 1528 1531 1534 1537 1539 1542 1544 1546 1548 1549 1550 1551 1551 1551 1551 1551 1550 1550 1548 1548 1547 1548 1548 1547 1546 1546 1545 1544 1543 1542 1540 1538 1537 1535 1532 1529
1512 1514 1516 1516 1516 1516 1517 1520 1523 1526 1529 1532 1534 1537 1539 1542 1544 1545 1547 1548 1548 1548 1548 1548 1548 1547 1546 1546 1546 1546 1546 1546 1545 1545 1545 1544 1543 1542 1540 1539 1538 1536 1534 1532
1508 1508 1509 1511 1512 1513 1513 1515 1517 1519 1522 1525 1528 1531 1534 1537 1539 1541 1542 1543 1544 1544 1545 1545 1544 1544 1543 1543 1543 1543 1544 1544 1543 1544 1544 1543 1543 1542 1541 1540 1538 1537 1535 1533
1504 1503 1502 1503 1505 1506 1507 1509 1511 1513 1516 1519 1521 1525 1528 1531 1533 1535 1537 1539 1540 1540 1541 1541 1541 1541 1540 1540 1541 1541 1541 1541 1541 1541 1542 1542 1542 1541 1540 1539 1538 1537 1536 1533
1498 1498 1498 1498 1498 1499 1501 1502 1504 1507 1509 1512 1516 1519 1521 1524 1526 1529 1532 1533 1535 1535 1536 1536 1537 1537 1537 1537 1537 1538 1539 1539 1539 1539 1539 1539 1539 1539 1539 1538 1537 1536 1535 1533
1490 1490 1490 1491 1492 1494 1495 1496 1497 1500 1503 1506 1508 1511 1514 1517 1520 1523 1526 1527 1528 1530 1531 1532 1532 1532 1533 1533 1533 1534 1535 1535 1536 1536 1536 1536 1536 1536 1536 1536 1536 1535 1534 1533
1483 1482 1482 1482 1483 1485 1486 1488 1490 1493 1495 1498 1501 1504 1507 1510 1513 1516 1518 1520 1522 1524 1526 1526 1527 1528 1528 1529 1529 1530 1531 1531 1532 1532 1532 1533 1533 1533 1533 1533 1533 1533 1533 1532
1478 1476 1474 1474 1474 1476 1478 1481 1483 1485 1487 1490 1493 1495 1499 1503 1506 1509 1511 1513 1516 1518 1520 1521 1522 1523 1523 1524 1524 1525 1526 1527 1527 1528 1528 1529 1529 1530 1530 1530 1530 1530 1530 1530
1476 1472 1469 1468 1468 1469 1471 1473 1475 1477 1480 1482 1485 1489 1493 1496 1498 1501 1503 1506 1510 1511 1513 1514 1516 1517 1518 1519 1520 1521 1522 1522 1523 1523 1524 1524 1525 1525 1526 1526 1526 1526 1526 1526
1477 1472 1467 1465 1464 1464 1465 1466 1468 1470 1472 1475 1478 1481 1485 1488 1491 1493 1496 1499 1502 1504 1506 1508 1510 1512 1513 1514 1515 1516 1517 1518 1518 1519 1519 1519 1520 1520 1521 1521 1521 1522 1522 1522
1479 1474 1469 1465 1462 1461 1461 1461 1463 1464 1467 1469 1472 1476 1479 1482 1484 1487 1490 1493 1495 1497 1499 1502 1504 1505 1507 1508 1509 1511 1512 1512 1513 1514 1514 1515 1515 1515 1516 1516 1516 1516 1517 1517
1482 1477 1473 1468 1465 1462 1460 1459 1459 1460 1462 1464 1466 1469 1472 1475 1478 1481 1484 1486 1488 1491 1493 1495 1497 1499 1500 1501 1503 1505 1506 1507 1508 1509 1509 1510 1510 1510 1510 1511 1511 1511 1511 1511
1483 1480 1477 1474 1471 1467 1464 1461 1460 1459 1459 1460 1462 1464 1466 1469 1472 1474 1477 1479 1482 1484 1486 1489 1490 1492 1493 1495 1497 1498 1500 1501 1502 1503 1503 1504 1505 1505 1505 1505 1505 1505 1505 1505
1482 1479 1477 1475 1473 1470 1468 1466 1464 1462 1460 1460 1460 1460 1462 1464 1466 1468 1471 1473 1475 1478 1480 1482 1484 1485 1487 1489 1490 1491 1493 1494 1495 1496 1497 1498 1498 1499 1499 1499 1499 1499 1499 1499